Theta_e
291 290 290 289 288 288 288 288 288 288 288 289 288 288 287 287 287 287 287 287 287 287 287 288 288 289 289 289 290 291 291 291 292 292 293 293 294 295
290 290 289 288 288 287 287 287 287 287 287 287 287 287 287 286 286 287 287 286 286 287 287 287 288 288 288 289 289 290 290 291 291 292 292 293 293 294
289 289 288 287 287 286 286 286 286 286 286 287 287 286 286 287 287 287 286 286 286 285 286 286 287 287 288 288 289 289 290 290 291 291 292 292 293 293
289 288 287 286 286 286 286 286 286 286 286 286 286 286 286 287 287 286 286 285 285 285 286 286 287 287 287 288 288 289 289 290 290 290 291 291 292 292
288 287 286 285 286 286 286 286 286 286 286 286 286 286 287 287 287 285 285 285 285 285 286 286 286 287 287 287 288 288 288 289 289 289 289 290 290 291
287 286 285 285 286 286 286 286 286 286 286 286 286 286 287 286 285 285 285 285 285 285 285 286 286 286 286 287 287 287 287 287 288 288 288 289 289 289
286 286 285 285 284 285 285 286 285 285 285 286 287 286 285 285 285 285 284 285 285 285 285 285 285 285 286 286 286 286 286 287 287 287 288 288 288 288
286 286 285 285 285 285 285 285 285 285 286 286 285 285 285 284 284 284 284 284 284 285 285 284 285 285 285 285 286 286 286 287 287 287 288 288 288 289
285 285 285 285 285 285 284 285 285 285 286 285 284 284 284 284 284 284 284 283 284 283 284 284 284 285 285 286 286 287 287 288 287 288 288 288 289 289
285 285 285 285 285 285 285 285 285 285 285 284 284 284 284 284 284 283 283 283 284 284 284 284 285 285 285 286 288 289 289 288 287 288 288 288 289 289
285 285 285 285 285 285 285 285 284 284 284 283 284 284 284 283 283 283 283 282 283 283 284 283 285 284 285 287 288 287 287 289 289 288 288 289 289 289
285 285 285 285 284 285 285 284 283 283 283 283 284 283 283 283 283 283 282 282 282 281 284 283 282 283 283 285 287 289 288 289 289 288 289 289 289 289
285 285 285 284 284 284 283 283 283 283 283 283 282 283 283 283 283 283 283 282 282 282 286 282 282 283 282 283 287 290 288 289 289 288 289 289 289 290
284 284 284 284 283 282 282 282 282 282 282 281 281 282 282 284 285 285 285 285 285 284 286 285 283 284 283 283 284 289 291 290 289 289 290 290 290 291
284 283 283 282 281 282 281 282 282 281 281 280 280 282 283 284 285 284 285 285 286 286 286 286 285 285 284 284 285 287 288 290 289 290 290 290 291 291
283 283 282 281 281 281 281 281 281 280 280 280 281 283 284 284 284 284 284 285 285 286 286 286 286 286 286 287 287 289 290 289 290 290 290 291 293 293
282 281 281 280 280 280 280 280 281 281 281 283 283 284 284 284 285 285 284 284 284 284 286 287 286 287 288 289 290 291 289 289 290 290 290 291 293 292
280 280 280 280 280 280 280 281 282 283 283 284 284 284 284 284 284 285 285 285 283 285 284 286 286 288 289 290 290 290 290 289 290 290 290 291 292 291
280 279 279 279 279 279 280 282 283 284 285 285 284 285 284 284 285 285 285 285 285 285 285 285 286 287 287 288 290 291 290 290 290 290 290 291 291 292
280 279 279 279 280 281 282 283 284 285 285 285 285 285 285 284 285 285 285 286 285 285 285 286 286 287 287 287 288 291 291 290 290 290 290 291 292 293
279 279 279 280 282 282 283 283 284 285 285 285 286 285 286 286 286 286 286 286 285 285 284 285 286 288 289 289 289 290 291 290 290 290 290 290 290 290
279 280 281 282 283 283 283 284 285 285 286 286 286 286 286 286 286 286 286 286 286 286 285 285 287 288 289 288 289 290 290 290 291 291 291 290 290 290
280 280 282 283 283 284 284 285 285 286 286 286 286 286 286 286 286 286 286 286 286 286 286 285 287 288 288 288 289 290 290 290 289 289 290 291 291 291
Wind_Speed
15 16 17 18 19 18 19 19 23 34 36 24 18 23 28 29 29 30 31 32 34 35 35 36 36 38 38 38 38 38 39 38 39 40 41 43 44 44
16 18 19 19 20 20 19 20 21 27 40 31 30 28 28 29 29 30 31 35 36 35 38 36 35 36 36 37 37 38 39 39 40 41 42 42 42 43
18 19 20 21 21 20 20 20 22 24 35 44 34 32 30 31 30 29 31 34 38 35 35 34 35 36 36 37 38 38 39 39 40 40 41 42 42 44
20 20 21 22 23 20 19 21 23 25 31 42 41 38 36 32 31 33 36 33 33 33 33 35 36 36 36 36 37 38 38 38 39 40 41 43 43 43
20 22 23 22 21 20 21 22 24 27 30 35 43 42 39 33 36 41 30 31 30 33 33 33 35 36 35 35 37 38 39 40 40 40 41 42 42 43
22 23 23 22 20 21 22 24 25 28 31 33 37 44 32 41 38 34 35 35 37 34 38 32 34 33 35 38 38 38 37 37 38 39 40 41 41 42
22 22 20 21 24 22 22 24 27 30 32 36 36 36 44 36 36 36 37 41 40 35 39 34 34 43 42 38 36 35 34 34 36 37 38 39 40 40
21 20 20 21 21 23 23 25 26 29 37 32 41 35 36 34 37 38 41 41 43 32 32 49 37 43 43 42 37 36 36 36 35 36 37 38 39 40
20 20 20 20 22 23 25 26 27 29 31 32 33 32 35 36 40 42 44 43 41 44 36 49 38 44 43 44 40 37 32 32 34 34 36 37 38 39
19 20 20 21 22 24 28 30 32 29 27 27 28 32 36 35 37 38 38 40 40 36 29 40 42 42 43 46 37 28 34 32 31 33 35 37 39 40
19 20 21 23 22 27 28 33 31 29 26 25 30 30 32 32 28 29 31 32 41 38 40 27 30 44 48 45 36 30 34 35 31 33 35 36 38 38
20 21 22 22 26 26 30 31 32 29 29 34 29 27 24 24 23 22 27 30 35 40 28 29 41 29 29 34 38 48 41 36 36 33 34 33 31 32
22 23 22 25 27 30 28 27 25 28 31 28 25 23 23 23 23 24 26 28 32 35 37 30 38 39 28 39 49 46 40 41 42 36 30 32 32 32
23 23 27 28 30 29 27 24 24 25 22 22 24 26 27 31 30 29 29 28 28 34 32 27 33 34 37 43 45 45 43 41 40 35 36 42 37 31
23 28 29 29 29 27 23 22 21 18 20 24 26 28 31 32 32 32 30 28 28 30 29 27 27 30 33 39 44 47 40 45 33 41 42 39 34 28
27 29 27 26 23 22 21 19 18 19 22 25 28 31 32 31 32 30 30 30 32 33 28 27 26 27 33 33 34 39 35 36 44 45 40 34 29 21
28 23 21 20 20 20 19 19 20 21 24 27 31 31 31 31 31 30 30 30 31 34 35 31 26 28 26 28 33 30 33 35 40 43 42 34 24 23
23 18 18 18 19 20 21 24 26 28 28 30 30 30 31 33 33 32 30 31 32 33 33 33 31 33 33 31 18 28 31 34 38 40 40 31 24 24
18 17 18 19 20 21 23 28 32 30 30 30 30 30 32 31 30 32 31 31 33 32 31 30 27 29 30 31 36 28 32 34 34 35 38 27 21 19
19 19 20 20 21 24 27 30 31 30 30 30 31 30 30 31 31 32 30 30 31 32 33 31 26 26 28 30 31 34 29 29 28 29 34 32 20 17
20 21 21 22 24 26 29 31 29 30 31 31 30 30 30 31 31 31 30 29 27 29 29 31 28 23 24 24 23 31 32 26 19 21 25 28 31 19
22 23 23 24 25 27 30 30 30 31 31 30 29 29 30 30 31 31 29 30 28 27 28 29 25 22 22 24 27 30 31 30 21 16 17 15 23 18
23 24 24 24 26 29 30 30 32 31 29 30 30 30 32 32 30 28 25 26 26 25 25 25 24 22 23 23 24 27 27 29 27 29 22 16 13 11
Wind_Direction
317 317 317 313 308 304 300 297 298 303 303 304 303 298 301 302 302 302 302 299 297 298 298 297 294 292 292 289 287 285 285 282 279 276 274 270 269 267
316 316 314 311 308 305 300 296 292 291 292 299 301 302 303 302 304 302 300 298 299 297 297 295 294 292 290 290 288 285 283 281 279 277 274 270 267 264
316 314 313 312 308 305 301 296 294 293 291 297 301 304 305 306 303 301 299 301 302 297 297 298 296 294 293 291 288 285 282 280 279 277 275 272 269 267
314 313 314 311 310 307 303 299 295 295 294 296 304 307 308 308 303 308 304 298 299 300 299 299 298 296 295 291 288 286 284 282 280 278 275 272 270 267
314 314 313 311 308 304 301 299 298 297 296 296 301 305 307 307 308 307 308 306 302 302 301 300 298 297 297 294 291 287 283 281 279 278 275 272 269 266
313 311 309 307 303 303 302 299 298 298 298 296 297 304 305 307 310 310 309 308 308 308 305 303 301 300 298 294 292 289 286 283 281 278 275 272 269 266
309 308 306 300 304 301 301 302 301 298 299 299 301 304 306 310 310 310 307 308 308 310 308 310 302 308 312 309 301 295 289 287 283 281 278 274 271 267
309 307 306 305 304 304 300 301 300 302 303 302 304 302 302 305 307 307 308 309 308 314 308 306 307 306 310 311 307 297 293 288 284 282 278 275 271 267
308 308 308 306 307 306 306 308 302 301 300 299 298 297 300 302 307 309 305 303 300 305 306 301 308 303 311 315 313 308 300 295 289 285 280 276 272 268
307 307 307 307 309 310 311 308 310 306 301 297 295 296 298 304 302 299 298 302 304 305 306 295 314 309 312 313 321 321 330 317 300 291 286 280 273 268
310 309 306 307 309 315 311 313 309 305 303 300 302 299 297 298 299 299 301 303 305 308 317 302 308 308 316 322 326 319 311 319 314 300 294 288 284 278
314 312 310 309 315 315 313 309 307 306 308 314 308 302 304 305 306 300 298 298 303 309 314 309 311 317 314 312 312 324 327 331 322 306 299 293 288 281
315 314 311 312 315 310 310 306 301 308 306 306 306 308 310 309 307 307 308 304 301 296 319 309 307 313 299 303 317 326 328 329 327 318 314 313 299 285
313 311 310 314 310 313 313 309 309 306 305 306 307 314 316 323 324 320 317 315 310 308 320 320 307 311 310 305 303 322 329 329 326 320 317 315 311 298
313 312 312 311 317 318 317 317 316 313 308 307 312 316 323 325 326 327 325 323 317 321 327 327 319 318 312 300 297 308 312 326 329 325 329 325 316 307
315 314 311 317 319 319 321 321 318 315 312 312 315 323 327 328 331 333 328 331 326 329 334 336 331 324 318 315 309 313 324 311 330 333 337 332 329 322
312 315 315 318 318 319 320 320 322 321 322 326 327 328 330 331 332 336 333 328 324 327 333 341 340 335 330 332 323 326 320 324 337 342 344 338 343 341
320 315 314 316 318 320 323 326 331 333 332 330 332 333 332 332 331 334 334 332 327 330 330 338 336 340 342 340 326 320 333 331 340 351 351 347 351 350
323 318 317 318 318 319 325 330 334 336 335 335 333 335 333 332 333 335 334 333 331 333 331 331 335 335 325 318 332 345 332 335 338 349 357 354 348 348
328 323 321 322 323 327 333 334 334 334 335 334 335 334 336 335 334 336 334 331 331 329 328 333 335 333 324 314 316 339 352 337 339 347 353 356 1 6
328 326 326 327 330 332 334 333 332 333 335 334 335 336 337 336 334 335 334 332 323 328 321 324 336 334 331 338 327 332 351 355 344 349 354 359 356 355
327 327 331 333 333 334 334 333 333 334 336 336 336 338 339 337 334 333 332 330 327 327 322 325 338 337 339 338 334 342 346 352 358 0 2 11 5 353
330 331 334 336 337 336 336 334 334 336 338 337 337 336 339 337 337 333 329 330 327 323 324 328 338 344 346 340 339 345 350 357 2 356 6 8 16 18